SCP
0 0 0 0 0 0 0 0 0 -0 -0 0 0 -0 0 0 0 0 0 0 0 0 0 -0 -0 0 0 0 0 0 0 0 0 0 0 0 0 0 0 0 0 0 0 0 0 0 0 0 0 0 0 0 0 0
0 0 0 0 0 0 0 0 0 -0 -0 -0 0 0 0 0 0 0 0 0 -0 0 -0 -0 -0 -0 -0 0 0 0 0 0 0 0 0 0 -0 0 0 0 0 0 0 0 0 0 0 0 0 0 0 0 0 0
0 0 0 0 0 0 0 0 0 0 -0 -0 -0 0 0 0 0 0 0 -0 -0 -0 -0 -0 0 -0 0 -0 -0 0 0 0 0 0 1 0 0 0 0 0 0 0 0 0 0 0 0 0 0 0 0 0 0 0
0 0 0 0 0 0 0 0 0 0 -0 -0 -0 -0 0 0 0 0 0 -0 0 0 0 -0 0 -0 0 -0 -0 0 0 0 0 0 0 0 0 0 0 0 0 0 0 0 0 0 0 0 0 0 -0 -0 0 0
0 0 0 0 0 0 0 0 0 0 -0 -0 0 0 0 0 0 0 0 0 -0 0 0 0 0 0 0 -0 0 0 0 0 0 0 0 0 0 0 0 0 0 0 0 0 0 0 0 0 0 0 0 0 -0 0
0 0 0 0 0 0 0 0 0 0 -0 -0 -0 0 0 0 0 0 0 0 -0 -0 -0 -0 0 0 0 0 0 0 0 0 0 0 0 0 0 0 0 0 0 0 0 0 0 0 0 0 0 0 0 0 0 0
0 0 0 0 0 0 0 0 0 0 0 -0 -0 0 0 0 0 0 -0 -0 0 0 0 0 0 0 0 0 0 0 0 0 0 0 0 0 0 0 0 0 0 0 0 0 0 0 0 0 0 0 0 0 0 0
0 0 0 0 0 0 0 0 0 0 -0 0 0 0 0 0 -0 -0 -0 0 0 0 0 0 0 0 0 -0 -0 0 -0 -0 -0 -0 0 0 0 0 0 0 0 0 0 0 0 0 0 0 0 0 0 0 0 0
0 0 0 0 0 0 0 0 0 0 0 0 0 0 0 0 0 0 -0 -0 0 0 0 0 0 0 -0 0 -0 -0 -0 -0 -0 -0 -0 0 0 0 -0 0 0 0 0 0 0 0 0 0 0 0 0 0 0 0
0 0 0 0 0 0 0 0 0 0 -0 0 0 0 0 0 0 -0 -0 -0 -0 0 0 0 0 0 -0 -0 -0 -0 -0 0 0 0 -0 -0 -0 -0 0 0 0 0 0 0 -0 0 0 0 0 0 0 0 0 0
0 0 0 0 -0 0 0 0 0 0 0 0 0 0 0 0 0 0 -0 0 0 0 0 0 0 -0 -0 0 -0 -0 -0 0 0 0 0 0 -0 0 0 0 -0 0 0 0 0 0 0 0 0 0 0 0 0 0
0 0 0 -0 -0 0 0 0 0 0 0 0 0 0 0 0 0 0 0 0 0 0 0 0 0 0 0 0 0 0 -0 -0 0 -0 0 -0 -0 -0 -0 -0 0 -0 0 0 0 0 0 0 0 -0 0 0 0 0
0 0 0 0 -0 0 0 0 0 0 0 0 0 0 0 0 0 0 0 0 0 0 0 -0 -0 0 0 0 0 0 0 0 0 0 0 0 0 -0 -0 -0 0 0 0 0 0 0 0 -0 0 0 0 0 0 0
0 0 0 0 0 -0 0 0 0 0 0 0 0 0 0 0 0 0 0 0 0 0 -0 -0 -0 0 0 0 0 0 0 0 0 0 0 -0 -0 -0 0 0 0 0 0 0 0 0 -0 -0 -0 1 1 1 1 1
0 0 0 0 0 0 -0 0 0 0 0 0 0 0 0 0 0 0 0 0 0 0 -0 -0 0 0 0 0 0 0 0 0 0 0 0 -0 0 0 0 0 0 0 0 0 0 0 0 0 0 0 0 0 1 1
0 0 0 0 -0 -0 0 0 0 0 0 0 0 0 0 0 0 0 -0 -0 0 0 -0 0 0 0 0 0 0 0 0 0 0 0 0 0 0 0 0 0 0 0 0 0 0 0 0 0 0 0 0 0 0 0
0 0 0 0 -0 -0 0 0 0 0 0 -0 0 0 0 0 0 0 -0 -0 0 0 0 0 -0 0 0 0 0 0 0 0 0 0 0 0 0 0 0 0 0 0 0 0 0 0 0 0 0 0 0 0 0 0
0 0 0 0 0 0 0 0 0 0 0 0 0 -0 0 0 0 0 -0 -0 -0 -0 -0 0 0 0 0 0 0 0 0 0 0 -0 0 0 -0 -0 -0 -0 -0 0 0 0 0 0 0 0 0 0 0 0 0 0
0 0 0 0 0 0 0 0 0 0 0 0 0 0 0 0 0 0 0 0 0 -0 -0 0 -0 -0 0 0 0 0 0 0 0 -0 -0 -0 -0 -0 0 0 0 0 0 0 0 0 0 0 0 0 0 0 0 0
0 0 0 0 0 0 0 0 0 0 0 0 0 -0 0 -0 -0 -0 -0 0 0 0 -0 0 -0 -0 0 -0 0 0 -0 -0 -0 -0 -0 -0 -0 -0 -0 -0 -0 -0 0 -0 0 0 0 0 0 0 0 0 0 0
0 0 0 0 0 0 0 0 0 0 0 0 0 -0 0 0 -0 -0 -0 -0 0 0 0 0 0 0 -0 0 0 -0 -0 0 0 -0 -0 -0 -0 -0 -0 -0 -0 -0 -0 0 0 0 0 0 0 0 0 0 0 0
0 0 0 0 0 0 0 0 0 0 0 0 0 0 0 0 0 0 -0 -0 -0 -0 0 0 0 0 0 0 -0 -0 0 0 0 0 0 -0 -0 -0 -0 -0 -0 -0 -0 -0 0 0 0 0 0 0 0 0 0 0
0 0 0 0 0 0 0 0 0 0 0 0 0 0 0 0 0 -0 0 0 -0 -0 -0 0 0 0 0 0 -0 -0 -0 -0 -0 -0 0 -0 -0 -0 -0 -0 -0 0 0 0 0 0 0 0 0 0 0 0 0 0
0 0 0 0 0 0 0 0 0 0 0 0 0 0 0 0 0 0 0 0 0 0 0 -0 0 0 0 0 0 0 0 -0 -0 0 0 0 0 0 0 0 0 0 0 0 0 0 -0 0 0 0 0 0 0 0
0 0 0 0 0 0 0 0 0 0 0 0 0 0 0 0 0 0 0 0 0 0 0 0 0 0 0 0 0 0 0 0 0 0 0 0 0 0 0 0 0 0 0 0 0 0 0 0 0 0 0 0 0 0
0 0 0 0 0 0 0 0 0 0 0 0 0 0 0 0 0 0 0 0 0 0 0 0 0 0 0 0 0 0 0 0 0 0 0 0 0 0 0 0 0 0 0 0 0 0 0 0 0 0 0 0 0 0
0 0 0 0 0 0 0 0 0 0 0 0 0 0 0 0 0 0 0 0 0 0 0 0 0 0 0 0 0 0 0 0 0 0 0 0 0 0 0 0 0 0 0 0 0 0 0 0 0 0 0 0 0 0
0 0 0 0 0 0 0 0 0 0 0 0 0 0 0 0 0 0 0 0 0 0 0 0 0 0 0 0 0 0 0 0 0 0 0 0 0 0 0 0 0 0 0 0 0 0 0 0 0 0 0 0 0 0
0 0 0 0 0 0 0 0 0 0 0 0 0 0 0 0 0 0 0 0 0 0 0 0 0 0 0 0 0 0 0 0 0 0 0 0 0 0 0 0 0 0 0 0 0 0 0 0 0 0 0 0 0 0
0 0 0 0 0 0 0 0 0 0 0 0 0 0 0 0 0 0 0 0 0 0 0 0 0 0 0 0 0 0 0 0 0 0 0 0 0 0 0 0 0 0 0 0 0 0 0 0 0 0 0 0 0 0
0 0 0 0 0 0 0 0 0 0 0 0 0 0 0 0 0 0 0 0 0 0 0 0 0 0 0 0 0 0 0 0 0 0 0 0 0 0 0 0 0 0 0 0 0 0 0 0 0 0 0 0 0 0
0 0 0 0 0 0 0 0 0 0 0 0 0 0 0 0 0 0 0 0 0 0 0 0 0 0 0 0 0 0 0 0 0 0 0 0 0 0 0 0 0 0 0 0 0 0 0 0 0 0 0 0 0 0
0 0 0 0 0 0 0 0 0 0 0 0 0 0 0 0 0 0 0 0 0 0 0 0 0 0 0 0 0 0 0 0 0 0 0 0 0 0 0 0 0 0 0 0 0 0 0 0 0 0 0 0 0 0
Wind_Speed_500mb
70 63 63 56 50 45 49 54 54 54 59 31 29 29 18 8 3 6 9 9 12 9 27 16 16 19 13 9 7 15 15 17 18 26 21 11 10 19 26 36 42 30 23 21 28 32 25 19 18 36 19 12 15 30
73 64 59 52 48 41 46 52 52 52 46 41 36 31 24 1 4 2 16 7 11 19 26 33 35 27 20 11 19 7 9 11 20 15 18 17 16 15 25 27 16 30 30 27 27 23 14 30 24 37 22 32 27 28
68 66 58 52 50 43 39 46 46 54 54 49 34 31 14 9 4 6 14 15 18 11 25 16 9 7 15 18 12 9 3 8 8 9 11 13 16 23 18 32 25 28 13 19 18 29 15 25 21 22 31 29 19 24
63 62 58 55 52 44 35 42 49 53 52 45 37 27 14 10 10 15 18 12 16 12 8 6 3 4 10 9 9 14 17 6 6 12 12 11 13 26 29 27 33 30 30 31 26 32 26 27 47 39 33 30 24 19
63 59 56 54 51 44 45 50 53 50 53 40 26 17 10 15 16 15 13 8 15 11 10 22 29 10 11 15 18 18 21 21 20 11 10 19 18 15 23 28 33 30 41 32 27 24 40 40 32 50 42 38 33 31
59 57 54 52 50 50 53 55 55 55 54 38 25 20 15 16 24 13 5 4 21 23 9 9 13 8 8 12 15 18 20 22 25 16 13 12 23 10 13 28 35 54 40 36 32 20 12 29 31 23 38 45 32 33
53 53 52 50 53 58 61 66 66 59 48 36 26 22 18 18 19 14 9 12 26 21 8 8 8 7 10 8 8 14 18 21 23 26 24 25 21 14 18 23 36 59 40 41 27 17 32 44 34 34 33 42 41 37
50 51 51 54 60 64 66 70 70 63 48 39 28 23 22 22 22 12 10 24 26 10 7 5 8 10 2 7 6 15 18 23 17 22 19 16 20 19 14 41 50 38 49 44 41 36 32 40 45 37 33 28 38 41
52 53 55 59 62 66 68 72 71 60 50 39 27 18 13 6 9 11 32 22 8 9 6 4 5 6 8 7 4 6 13 9 11 11 20 14 14 17 25 28 26 37 49 55 54 52 51 50 52 48 41 38 42 39
57 57 57 60 62 65 71 75 68 58 48 28 12 4 4 6 30 17 7 3 7 7 8 7 8 5 7 5 3 6 7 7 6 13 15 12 29 45 43 38 35 33 36 36 40 47 47 52 57 58 49 41 41 45
61 59 57 58 57 65 71 70 61 58 36 17 13 4 13 14 7 5 6 5 3 6 8 9 8 7 10 7 4 8 4 6 7 10 11 10 19 31 56 55 53 47 43 38 40 48 51 48 47 54 61 54 45 41
62 57 54 52 56 65 69 63 54 48 28 18 13 11 16 10 6 8 8 6 6 7 16 11 18 10 10 10 7 8 6 5 9 3 7 9 12 14 21 30 33 42 48 47 40 43 46 49 48 47 47 52 46 41
61 54 49 48 60 64 64 53 47 39 24 12 11 7 11 10 9 11 12 7 13 20 21 43 20 7 8 17 7 5 8 7 2 5 6 6 15 5 4 13 17 21 34 35 31 32 36 37 36 39 45 43 44 55
61 53 42 48 57 63 57 44 38 33 12 9 11 13 12 8 5 6 10 12 25 30 45 39 20 6 8 5 5 7 5 5 6 4 4 7 16 19 15 14 45 32 38 28 24 32 35 37 36 30 31 39 46 50
60 49 34 52 54 57 43 38 29 26 10 9 10 10 5 14 27 29 28 30 38 36 38 23 14 10 6 7 6 7 9 8 9 8 7 20 10 19 32 38 27 35 47 41 40 50 57 64 58 57 47 29 22 38
57 45 51 51 54 48 31 26 21 17 8 8 8 10 27 21 27 34 35 35 37 42 28 10 8 8 7 11 8 11 19 13 11 11 35 42 40 51 58 67 62 49 35 45 55 57 56 59 65 62 60 52 24 22
50 46 52 52 53 39 24 19 12 10 8 9 9 17 20 16 24 34 32 36 34 23 12 8 15 11 8 11 10 11 14 12 30 37 50 43 40 40 48 60 60 58 53 51 67 65 60 59 54 54 41 21 1 22
50 52 47 52 48 34 19 18 7 6 6 8 12 27 22 17 24 31 32 37 27 25 15 12 13 12 10 13 12 10 17 41 50 41 43 44 44 43 44 51 49 49 58 59 52 53 55 46 41 37 25 22 18 15
43 46 44 45 37 18 10 9 7 7 5 11 17 20 15 16 18 23 26 29 24 19 14 11 9 9 8 10 24 35 39 32 35 41 45 50 51 47 45 47 52 58 57 50 47 48 47 42 36 29 24 22 25 19
36 27 36 28 21 8 6 5 8 6 6 11 14 21 11 14 17 21 28 32 27 26 16 9 10 18 19 35 34 26 32 32 35 46 48 47 44 47 48 45 45 43 44 45 49 47 47 48 40 36 35 32 28 24
33 34 26 19 8 8 4 7 4 4 10 10 16 17 11 10 12 18 23 22 26 14 11 24 33 29 27 28 26 22 26 29 35 37 37 39 38 41 43 44 42 41 42 44 43 43 46 43 37 34 32 31 28 25
35 30 19 11 4 6 4 6 8 9 6 13 15 14 7 9 12 14 10 17 9 17 25 31 36 36 29 32 26 18 20 24 29 34 39 41 41 39 38 35 36 39 38 37 35 36 36 36 38 37 35 30 27 25
29 17 8 6 5 3 4 11 6 6 5 11 14 8 4 7 11 12 2 8 13 22 24 30 31 23 19 20 18 19 20 21 22 26 30 33 36 37 33 31 29 28 30 30 27 26 28 30 33 33 33 34 34 32
19 6 2 3 4 4 7 4 6 6 5 6 6 7 6 10 15 5 4 6 17 22 27 34 31 24 14 15 18 23 23 20 15 20 23 26 30 32 35 34 29 28 27 21 21 20 17 18 20 22 26 31 33 33
7 6 3 4 4 4 3 3 4 3 3 4 5 5 5 9 6 5 2 9 20 26 29 34 29 23 20 18 20 19 21 16 16 15 20 21 22 21 23 27 31 30 27 25 25 20 17 14 15 16 16 17 17 19
8 8 7 8 5 4 2 4 3 5 4 4 5 6 5 5 5 5 1 13 19 25 29 34 31 30 17 18 19 21 22 16 9 11 16 17 17 17 19 21 23 27 30 28 26 26 27 25 19 15 15 15 14 15
8 11 10 9 5 5 5 6 7 6 7 6 3 3 4 6 7 6 3 10 24 25 22 23 28 24 27 24 16 12 13 15 14 14 15 16 16 16 16 16 17 18 21 22 21 22 22 22 21 22 20 21 25 22
16 15 15 17 13 11 6 5 6 6 7 6 4 5 5 5 5 2 10 23 27 25 23 22 21 26 17 17 18 12 7 4 4 5 7 13 18 16 15 14 13 13 15 16 16 14 14 15 15 17 17 18 19 24
14 18 22 14 11 9 13 11 10 11 12 13 8 8 9 14 19 28 32 32 32 30 29 26 22 20 15 7 11 12 7 4 2 3 2 5 4 12 12 13 13 13 12 13 16 12 8 9 11 12 11 13 17 20
15 28 17 17 11 13 17 21 16 15 18 24 26 29 34 36 33 34 39 41 41 38 32 28 26 21 15 17 14 10 6 5 6 7 5 6 7 9 10 11 11 10 9 9 10 10 6 5 5 5 6 6 9 13
14 30 15 18 13 22 24 19 19 23 27 32 34 38 41 38 38 34 33 31 31 29 27 25 22 16 19 24 24 10 3 7 4 4 3 4 5 7 8 8 9 9 10 11 10 9 8 8 7 7 7 7 7 7
20 20 17 10 15 24 21 23 30 34 36 38 39 40 40 40 37 36 24 30 20 19 19 19 18 21 18 17 15 13 8 12 8 4 2 1 1 2 4 6 7 7 7 6 6 7 7 7 8 9 10 10 10 10
14 15 15 12 6 8 22 20 13 22 29 30 37 40 41 39 26 6 7 14 8 8 17 20 23 25 21 17 14 11 11 11 8 6 5 5 7 8 10 11 13 14 14 14 14 13 13 12 12 12 12 12 13 15
Wind_Direction_500mb
357 355 354 353 357 360 0 4 5 3 3 7 3 8 349 339 202 224 295 246 260 275 288 273 281 308 318 262 242 202 183 229 210 216 183 175 264 230 237 209 188 191 187 197 216 210 221 172 205 196 204 155 195 210
360 360 354 354 356 355 355 2 6 6 3 3 358 360 359 106 178 236 342 292 278 256 273 286 279 275 277 315 345 304 295 264 199 224 219 203 186 232 245 215 204 215 208 208 203 205 78 183 205 205 211 221 224 240
359 0 0 359 356 355 353 359 6 4 4 1 4 1 22 87 105 326 327 329 348 280 300 254 281 260 253 266 276 291 304 338 239 287 297 241 225 222 215 245 205 222 250 239 249 225 222 241 239 234 230 234 248 229
2 1 0 359 358 357 1 359 357 356 357 356 4 27 41 349 298 316 326 330 352 311 280 107 11 264 244 249 252 252 268 289 302 238 239 246 243 240 228 229 235 232 221 233 247 247 255 237 242 249 243 246 236 232
2 2 4 5 7 9 0 355 351 351 350 347 345 346 347 356 332 296 308 320 0 340 311 304 300 290 241 256 270 264 235 240 259 262 240 220 240 264 239 241 231 239 230 230 232 241 239 243 231 242 246 237 233 234
360 1 2 3 3 360 355 353 349 346 348 345 336 335 305 309 344 324 261 249 352 342 315 314 331 284 271 285 262 233 222 228 236 247 254 247 240 242 248 226 228 230 237 238 262 219 268 263 278 284 266 233 238 223
358 359 0 360 357 353 351 348 344 342 342 341 325 313 302 302 314 308 326 311 326 324 272 281 287 207 260 245 224 212 210 218 230 242 244 253 241 233 244 242 221 223 218 224 233 256 267 259 250 250 244 247 242 233
353 352 352 348 348 347 345 345 342 341 336 329 311 301 293 299 299 303 264 303 314 293 281 282 283 286 252 232 238 210 209 209 225 241 246 249 249 220 245 238 239 233 234 231 239 240 253 267 278 269 261 249 221 215
349 345 345 344 343 345 343 342 341 339 336 330 317 305 294 280 288 300 293 304 264 248 282 266 282 316 339 282 238 239 218 226 261 237 233 218 222 221 235 236 226 226 231 241 244 245 243 249 260 255 251 245 227 220
345 341 340 341 342 344 344 343 342 343 341 341 5 327 276 286 307 316 317 260 214 219 233 257 241 264 279 275 228 241 217 215 229 228 219 229 239 237 233 224 239 238 230 239 246 240 237 243 252 246 241 242 236 231
345 342 340 340 343 345 345 346 346 348 358 4 358 321 310 330 350 296 298 298 287 252 221 269 263 262 265 249 243 222 248 233 238 195 211 226 243 229 229 233 235 236 238 249 251 245 237 243 246 241 245 244 235 230
345 343 342 342 344 346 347 348 349 355 354 350 345 337 346 350 321 310 332 304 285 314 324 313 309 267 265 238 229 227 241 238 243 76 244 244 225 229 206 215 231 232 235 246 251 233 232 238 242 242 239 236 229 215
345 342 340 341 344 346 347 347 349 353 357 355 356 344 351 0 358 343 342 342 321 329 323 328 330 276 272 227 239 259 248 235 27 210 231 257 293 209 270 245 240 240 233 237 225 221 221 225 222 223 222 210 202 182
346 342 335 340 345 347 347 348 349 2 21 5 358 19 13 2 336 273 292 296 291 295 314 322 303 255 271 251 256 269 290 273 260 284 295 349 356 352 351 243 239 228 194 174 167 161 150 142 133 137 155 162 167 161
346 345 344 345 346 347 349 353 3 11 13 29 24 16 330 284 291 287 306 305 322 324 325 311 273 250 283 305 4 295 313 337 358 323 287 42 79 356 11 31 93 108 110 105 125 119 112 104 102 100 100 113 151 147
347 349 348 344 349 348 350 356 15 24 22 24 45 346 351 341 348 353 345 337 341 331 327 311 335 3 0 324 336 11 328 0 334 322 31 28 53 35 37 53 63 85 89 86 91 92 93 96 90 92 90 90 88 154
347 346 343 342 347 353 357 14 22 17 21 3 3 359 346 336 345 346 350 347 342 346 353 1 5 354 300 331 10 3 342 309 303 13 23 33 47 60 61 69 79 77 68 68 84 93 95 97 100 98 104 138 312 79
342 342 341 341 346 357 9 19 14 5 5 354 338 358 354 351 349 0 360 4 4 7 4 11 346 2 8 345 345 357 338 4 10 26 37 46 52 57 63 66 70 70 72 76 88 83 80 86 97 99 128 144 135 103
336 333 336 339 345 349 356 3 22 343 333 333 341 355 351 354 10 1 9 15 11 5 9 34 32 355 355 323 344 348 341 352 359 27 44 48 53 58 62 65 65 63 62 63 75 79 81 81 80 80 73 79 84 89
339 335 338 338 347 343 330 351 4 326 330 326 327 342 335 358 360 13 24 19 22 33 32 36 20 16 354 341 348 335 337 355 17 25 33 40 48 53 55 59 61 65 65 61 59 61 58 56 54 54 58 61 61 57
342 342 344 346 340 6 341 338 309 327 311 303 328 334 320 337 15 21 22 21 36 27 5 357 352 357 352 355 2 14 40 44 39 40 35 42 47 51 53 53 54 55 56 58 57 57 58 58 56 54 57 59 57 53
331 338 339 344 320 319 286 336 296 299 286 302 323 321 320 337 346 14 351 36 51 10 0 344 344 344 357 5 8 20 28 40 40 42 45 45 46 44 44 44 49 52 53 54 55 56 58 61 60 60 61 60 59 65
331 326 334 331 305 287 282 333 298 337 295 331 325 298 317 336 340 327 58 43 38 4 357 352 350 352 7 9 30 22 27 32 39 39 34 41 48 45 47 51 53 56 56 54 57 63 60 57 58 57 52 53 53 53
325 282 267 279 280 283 312 300 311 306 302 337 317 300 345 330 324 322 73 50 358 358 1 357 1 0 12 26 42 34 25 17 41 38 36 41 43 44 47 51 50 47 46 56 60 62 68 61 59 53 47 45 44 47
283 237 240 263 236 266 256 298 307 289 295 339 303 284 341 327 295 359 27 5 2 0 359 354 355 355 349 3 12 15 12 23 27 42 35 33 30 43 46 46 46 44 42 41 37 38 41 48 57 62 63 55 42 37
250 220 195 201 206 226 214 257 247 276 313 287 251 285 315 276 256 237 146 3 359 353 351 349 346 349 352 346 352 355 358 2 23 45 41 43 46 50 48 50 45 33 39 31 30 38 43 45 47 53 48 35 32 41
236 213 203 207 207 206 233 243 269 253 244 233 236 295 267 256 245 170 167 354 343 337 337 341 347 341 335 343 335 327 7 34 69 79 66 57 58 59 57 52 43 42 42 41 39 29 32 35 40 47 50 47 40 30
222 208 195 193 196 201 215 212 226 228 233 203 228 231 237 226 263 199 302 319 320 317 308 308 319 317 314 328 334 338 280 291 311 10 49 50 49 49 51 49 39 28 25 20 25 28 39 34 38 46 44 50 46 40
208 200 189 189 188 197 216 210 233 220 223 223 232 247 258 264 288 298 300 305 305 296 289 285 275 307 301 318 341 357 8 42 251 204 161 81 61 12 46 52 50 46 44 34 19 25 42 46 44 49 50 48 29 21
204 186 186 192 193 212 223 212 235 242 245 257 267 269 275 279 285 291 291 293 295 287 279 274 264 249 263 279 280 300 333 66 94 69 32 36 19 5 8 8 5 6 11 10 9 15 16 32 32 24 24 348 360 11
182 191 207 208 224 231 233 234 248 260 263 264 266 264 268 282 292 293 294 292 290 281 272 259 254 243 261 274 256 247 315 341 24 45 54 30 7 359 355 356 355 349 340 334 331 330 334 334 332 325 322 314 308 300
192 198 208 214 234 250 251 260 262 256 263 266 266 271 274 279 290 294 281 286 301 282 269 261 246 225 221 230 244 244 288 283 290 282 242 192 114 65 49 45 41 37 30 12 354 343 340 340 345 345 344 341 335 324
212 211 224 248 275 251 258 254 279 271 267 262 266 271 275 282 288 246 281 303 314 291 252 238 244 246 229 203 207 224 254 265 265 236 186 146 119 107 100 87 80 75 68 66 62 57 51 45 40 31 22 16 12 9
Wind_Speed_850mb
70 63 63 56 50 45 49 54 54 54 59 31 29 29 18 8 3 6 9 9 12 9 27 16 16 19 13 9 7 15 15 17 18 26 21 11 10 19 26 36 42 30 23 21 28 32 25 19 18 36 19 12 15 30
73 64 59 52 48 41 46 52 52 52 46 41 36 31 24 1 4 2 16 7 11 19 26 33 35 27 20 11 19 7 9 11 20 15 18 17 16 15 25 27 16 30 30 27 27 23 14 30 24 37 22 32 27 28
68 66 58 52 50 43 39 46 46 54 54 49 34 31 14 9 4 6 14 15 18 11 25 16 9 7 15 18 12 9 3 8 8 9 11 13 16 23 18 32 25 28 13 19 18 29 15 25 21 22 31 29 19 24
63 62 58 55 52 44 35 42 49 53 52 45 37 27 14 10 10 15 18 12 16 12 8 6 3 4 10 9 9 14 17 6 6 12 12 11 13 26 29 27 33 30 30 31 26 32 26 27 47 39 33 30 24 19
63 59 56 54 51 44 45 50 53 50 53 40 26 17 10 15 16 15 13 8 15 11 10 22 29 10 11 15 18 18 21 21 20 11 10 19 18 15 23 28 33 30 41 32 27 24 40 40 32 50 42 38 33 31
59 57 54 52 50 50 53 55 55 55 54 38 25 20 15 16 24 13 5 4 21 23 9 9 13 8 8 12 15 18 20 22 25 16 13 12 23 10 13 28 35 54 40 36 32 20 12 29 31 23 38 45 32 33
53 53 52 50 53 58 61 66 66 59 48 36 26 22 18 18 19 14 9 12 26 21 8 8 8 7 10 8 8 14 18 21 23 26 24 25 21 14 18 23 36 59 40 41 27 17 32 44 34 34 33 42 41 37
50 51 51 54 60 64 66 70 70 63 48 39 28 23 22 22 22 12 10 24 26 10 7 5 8 10 2 7 6 15 18 23 17 22 19 16 20 19 14 41 50 38 49 44 41 36 32 40 45 37 33 28 38 41
52 53 55 59 62 66 68 72 71 60 50 39 27 18 13 6 9 11 32 22 8 9 6 4 5 6 8 7 4 6 13 9 11 11 20 14 14 17 25 28 26 37 49 55 54 52 51 50 52 48 41 38 42 39
57 57 57 60 62 65 71 75 68 58 48 28 12 4 4 6 30 17 7 3 7 7 8 7 8 5 7 5 3 6 7 7 6 13 15 12 29 45 43 38 35 33 36 36 40 47 47 52 57 58 49 41 41 45
61 59 57 58 57 65 71 70 61 58 36 17 13 4 13 14 7 5 6 5 3 6 8 9 8 7 10 7 4 8 4 6 7 10 11 10 19 31 56 55 53 47 43 38 40 48 51 48 47 54 61 54 45 41
62 57 54 52 56 65 69 63 54 48 28 18 13 11 16 10 6 8 8 6 6 7 16 11 18 10 10 10 7 8 6 5 9 3 7 9 12 14 21 30 33 42 48 47 40 43 46 49 48 47 47 52 46 41
61 54 49 48 60 64 64 53 47 39 24 12 11 7 11 10 9 11 12 7 13 20 21 43 20 7 8 17 7 5 8 7 2 5 6 6 15 5 4 13 17 21 34 35 31 32 36 37 36 39 45 43 44 55
61 53 42 48 57 63 57 44 38 33 12 9 11 13 12 8 5 6 10 12 25 30 45 39 20 6 8 5 5 7 5 5 6 4 4 7 16 19 15 14 45 32 38 28 24 32 35 37 36 30 31 39 46 50
60 49 34 52 54 57 43 38 29 26 10 9 10 10 5 14 27 29 28 30 38 36 38 23 14 10 6 7 6 7 9 8 9 8 7 20 10 19 32 38 27 35 47 41 40 50 57 64 58 57 47 29 22 38
57 45 51 51 54 48 31 26 21 17 8 8 8 10 27 21 27 34 35 35 37 42 28 10 8 8 7 11 8 11 19 13 11 11 35 42 40 51 58 67 62 49 35 45 55 57 56 59 65 62 60 52 24 22
50 46 52 52 53 39 24 19 12 10 8 9 9 17 20 16 24 34 32 36 34 23 12 8 15 11 8 11 10 11 14 12 30 37 50 43 40 40 48 60 60 58 53 51 67 65 60 59 54 54 41 21 1 22
50 52 47 52 48 34 19 18 7 6 6 8 12 27 22 17 24 31 32 37 27 25 15 12 13 12 10 13 12 10 17 41 50 41 43 44 44 43 44 51 49 49 58 59 52 53 55 46 41 37 25 22 18 15
43 46 44 45 37 18 10 9 7 7 5 11 17 20 15 16 18 23 26 29 24 19 14 11 9 9 8 10 24 35 39 32 35 41 45 50 51 47 45 47 52 58 57 50 47 48 47 42 36 29 24 22 25 19
36 27 36 28 21 8 6 5 8 6 6 11 14 21 11 14 17 21 28 32 27 26 16 9 10 18 19 35 34 26 32 32 35 46 48 47 44 47 48 45 45 43 44 45 49 47 47 48 40 36 35 32 28 24
33 34 26 19 8 8 4 7 4 4 10 10 16 17 11 10 12 18 23 22 26 14 11 24 33 29 27 28 26 22 26 29 35 37 37 39 38 41 43 44 42 41 42 44 43 43 46 43 37 34 32 31 28 25
35 30 19 11 4 6 4 6 8 9 6 13 15 14 7 9 12 14 10 17 9 17 25 31 36 36 29 32 26 18 20 24 29 34 39 41 41 39 38 35 36 39 38 37 35 36 36 36 38 37 35 30 27 25
29 17 8 6 5 3 4 11 6 6 5 11 14 8 4 7 11 12 2 8 13 22 24 30 31 23 19 20 18 19 20 21 22 26 30 33 36 37 33 31 29 28 30 30 27 26 28 30 33 33 33 34 34 32
19 6 2 3 4 4 7 4 6 6 5 6 6 7 6 10 15 5 4 6 17 22 27 34 31 24 14 15 18 23 23 20 15 20 23 26 30 32 35 34 29 28 27 21 21 20 17 18 20 22 26 31 33 33
7 6 3 4 4 4 3 3 4 3 3 4 5 5 5 9 6 5 2 9 20 26 29 34 29 23 20 18 20 19 21 16 16 15 20 21 22 21 23 27 31 30 27 25 25 20 17 14 15 16 16 17 17 19
8 8 7 8 5 4 2 4 3 5 4 4 5 6 5 5 5 5 1 13 19 25 29 34 31 30 17 18 19 21 22 16 9 11 16 17 17 17 19 21 23 27 30 28 26 26 27 25 19 15 15 15 14 15
8 11 10 9 5 5 5 6 7 6 7 6 3 3 4 6 7 6 3 10 24 25 22 23 28 24 27 24 16 12 13 15 14 14 15 16 16 16 16 16 17 18 21 22 21 22 22 22 21 22 20 21 25 22
16 15 15 17 13 11 6 5 6 6 7 6 4 5 5 5 5 2 10 23 27 25 23 22 21 26 17 17 18 12 7 4 4 5 7 13 18 16 15 14 13 13 15 16 16 14 14 15 15 17 17 18 19 24
14 18 22 14 11 9 13 11 10 11 12 13 8 8 9 14 19 28 32 32 32 30 29 26 22 20 15 7 11 12 7 4 2 3 2 5 4 12 12 13 13 13 12 13 16 12 8 9 11 12 11 13 17 20
15 28 17 17 11 13 17 21 16 15 18 24 26 29 34 36 33 34 39 41 41 38 32 28 26 21 15 17 14 10 6 5 6 7 5 6 7 9 10 11 11 10 9 9 10 10 6 5 5 5 6 6 9 13
14 30 15 18 13 22 24 19 19 23 27 32 34 38 41 38 38 34 33 31 31 29 27 25 22 16 19 24 24 10 3 7 4 4 3 4 5 7 8 8 9 9 10 11 10 9 8 8 7 7 7 7 7 7
20 20 17 10 15 24 21 23 30 34 36 38 39 40 40 40 37 36 24 30 20 19 19 19 18 21 18 17 15 13 8 12 8 4 2 1 1 2 4 6 7 7 7 6 6 7 7 7 8 9 10 10 10 10
14 15 15 12 6 8 22 20 13 22 29 30 37 40 41 39 26 6 7 14 8 8 17 20 23 25 21 17 14 11 11 11 8 6 5 5 7 8 10 11 13 14 14 14 14 13 13 12 12 12 12 12 13 15
Wind_Direction_850mb
357 355 354 353 357 360 0 4 5 3 3 7 3 8 349 339 202 224 295 246 260 275 288 273 281 308 318 262 242 202 183 229 210 216 183 175 264 230 237 209 188 191 187 197 216 210 221 172 205 196 204 155 195 210
360 360 354 354 356 355 355 2 6 6 3 3 358 360 359 106 178 236 342 292 278 256 273 286 279 275 277 315 345 304 295 264 199 224 219 203 186 232 245 215 204 215 208 208 203 205 78 183 205 205 211 221 224 240
359 0 0 359 356 355 353 359 6 4 4 1 4 1 22 87 105 326 327 329 348 280 300 254 281 260 253 266 276 291 304 338 239 287 297 241 225 222 215 245 205 222 250 239 249 225 222 241 239 234 230 234 248 229
2 1 0 359 358 357 1 359 357 356 357 356 4 27 41 349 298 316 326 330 352 311 280 107 11 264 244 249 252 252 268 289 302 238 239 246 243 240 228 229 235 232 221 233 247 247 255 237 242 249 243 246 236 232
2 2 4 5 7 9 0 355 351 351 350 347 345 346 347 356 332 296 308 320 0 340 311 304 300 290 241 256 270 264 235 240 259 262 240 220 240 264 239 241 231 239 230 230 232 241 239 243 231 242 246 237 233 234
360 1 2 3 3 360 355 353 349 346 348 345 336 335 305 309 344 324 261 249 352 342 315 314 331 284 271 285 262 233 222 228 236 247 254 247 240 242 248 226 228 230 237 238 262 219 268 263 278 284 266 233 238 223
358 359 0 360 357 353 351 348 344 342 342 341 325 313 302 302 314 308 326 311 326 324 272 281 287 207 260 245 224 212 210 218 230 242 244 253 241 233 244 242 221 223 218 224 233 256 267 259 250 250 244 247 242 233
353 352 352 348 348 347 345 345 342 341 336 329 311 301 293 299 299 303 264 303 314 293 281 282 283 286 252 232 238 210 209 209 225 241 246 249 249 220 245 238 239 233 234 231 239 240 253 267 278 269 261 249 221 215
349 345 345 344 343 345 343 342 341 339 336 330 317 305 294 280 288 300 293 304 264 248 282 266 282 316 339 282 238 239 218 226 261 237 233 218 222 221 235 236 226 226 231 241 244 245 243 249 260 255 251 245 227 220
345 341 340 341 342 344 344 343 342 343 341 341 5 327 276 286 307 316 317 260 214 219 233 257 241 264 279 275 228 241 217 215 229 228 219 229 239 237 233 224 239 238 230 239 246 240 237 243 252 246 241 242 236 231
345 342 340 340 343 345 345 346 346 348 358 4 358 321 310 330 350 296 298 298 287 252 221 269 263 262 265 249 243 222 248 233 238 195 211 226 243 229 229 233 235 236 238 249 251 245 237 243 246 241 245 244 235 230
345 343 342 342 344 346 347 348 349 355 354 350 345 337 346 350 321 310 332 304 285 314 324 313 309 267 265 238 229 227 241 238 243 76 244 244 225 229 206 215 231 232 235 246 251 233 232 238 242 242 239 236 229 215
345 342 340 341 344 346 347 347 349 353 357 355 356 344 351 0 358 343 342 342 321 329 323 328 330 276 272 227 239 259 248 235 27 210 231 257 293 209 270 245 240 240 233 237 225 221 221 225 222 223 222 210 202 182
346 342 335 340 345 347 347 348 349 2 21 5 358 19 13 2 336 273 292 296 291 295 314 322 303 255 271 251 256 269 290 273 260 284 295 349 356 352 351 243 239 228 194 174 167 161 150 142 133 137 155 162 167 161
346 345 344 345 346 347 349 353 3 11 13 29 24 16 330 284 291 287 306 305 322 324 325 311 273 250 283 305 4 295 313 337 358 323 287 42 79 356 11 31 93 108 110 105 125 119 112 104 102 100 100 113 151 147
347 349 348 344 349 348 350 356 15 24 22 24 45 346 351 341 348 353 345 337 341 331 327 311 335 3 0 324 336 11 328 0 334 322 31 28 53 35 37 53 63 85 89 86 91 92 93 96 90 92 90 90 88 154
347 346 343 342 347 353 357 14 22 17 21 3 3 359 346 336 345 346 350 347 342 346 353 1 5 354 300 331 10 3 342 309 303 13 23 33 47 60 61 69 79 77 68 68 84 93 95 97 100 98 104 138 312 79
342 342 341 341 346 357 9 19 14 5 5 354 338 358 354 351 349 0 360 4 4 7 4 11 346 2 8 345 345 357 338 4 10 26 37 46 52 57 63 66 70 70 72 76 88 83 80 86 97 99 128 144 135 103
336 333 336 339 345 349 356 3 22 343 333 333 341 355 351 354 10 1 9 15 11 5 9 34 32 355 355 323 344 348 341 352 359 27 44 48 53 58 62 65 65 63 62 63 75 79 81 81 80 80 73 79 84 89
339 335 338 338 347 343 330 351 4 326 330 326 327 342 335 358 360 13 24 19 22 33 32 36 20 16 354 341 348 335 337 355 17 25 33 40 48 53 55 59 61 65 65 61 59 61 58 56 54 54 58 61 61 57
342 342 344 346 340 6 341 338 309 327 311 303 328 334 320 337 15 21 22 21 36 27 5 357 352 357 352 355 2 14 40 44 39 40 35 42 47 51 53 53 54 55 56 58 57 57 58 58 56 54 57 59 57 53
331 338 339 344 320 319 286 336 296 299 286 302 323 321 320 337 346 14 351 36 51 10 0 344 344 344 357 5 8 20 28 40 40 42 45 45 46 44 44 44 49 52 53 54 55 56 58 61 60 60 61 60 59 65
331 326 334 331 305 287 282 333 298 337 295 331 325 298 317 336 340 327 58 43 38 4 357 352 350 352 7 9 30 22 27 32 39 39 34 41 48 45 47 51 53 56 56 54 57 63 60 57 58 57 52 53 53 53
325 282 267 279 280 283 312 300 311 306 302 337 317 300 345 330 324 322 73 50 358 358 1 357 1 0 12 26 42 34 25 17 41 38 36 41 43 44 47 51 50 47 46 56 60 62 68 61 59 53 47 45 44 47
283 237 240 263 236 266 256 298 307 289 295 339 303 284 341 327 295 359 27 5 2 0 359 354 355 355 349 3 12 15 12 23 27 42 35 33 30 43 46 46 46 44 42 41 37 38 41 48 57 62 63 55 42 37
250 220 195 201 206 226 214 257 247 276 313 287 251 285 315 276 256 237 146 3 359 353 351 349 346 349 352 346 352 355 358 2 23 45 41 43 46 50 48 50 45 33 39 31 30 38 43 45 47 53 48 35 32 41
236 213 203 207 207 206 233 243 269 253 244 233 236 295 267 256 245 170 167 354 343 337 337 341 347 341 335 343 335 327 7 34 69 79 66 57 58 59 57 52 43 42 42 41 39 29 32 35 40 47 50 47 40 30
222 208 195 193 196 201 215 212 226 228 233 203 228 231 237 226 263 199 302 319 320 317 308 308 319 317 314 328 334 338 280 291 311 10 49 50 49 49 51 49 39 28 25 20 25 28 39 34 38 46 44 50 46 40
208 200 189 189 188 197 216 210 233 220 223 223 232 247 258 264 288 298 300 305 305 296 289 285 275 307 301 318 341 357 8 42 251 204 161 81 61 12 46 52 50 46 44 34 19 25 42 46 44 49 50 48 29 21
204 186 186 192 193 212 223 212 235 242 245 257 267 269 275 279 285 291 291 293 295 287 279 274 264 249 263 279 280 300 333 66 94 69 32 36 19 5 8 8 5 6 11 10 9 15 16 32 32 24 24 348 360 11
182 191 207 208 224 231 233 234 248 260 263 264 266 264 268 282 292 293 294 292 290 281 272 259 254 243 261 274 256 247 315 341 24 45 54 30 7 359 355 356 355 349 340 334 331 330 334 334 332 325 322 314 308 300
192 198 208 214 234 250 251 260 262 256 263 266 266 271 274 279 290 294 281 286 301 282 269 261 246 225 221 230 244 244 288 283 290 282 242 192 114 65 49 45 41 37 30 12 354 343 340 340 345 345 344 341 335 324
212 211 224 248 275 251 258 254 279 271 267 262 266 271 275 282 288 246 281 303 314 291 252 238 244 246 229 203 207 224 254 265 265 236 186 146 119 107 100 87 80 75 68 66 62 57 51 45 40 31 22 16 12 9